Weather in Budapest

Hungary     47˚29′33″N   19˚03′05″E
temp.,
°C
wind,
m/s
gust,
m/s
humid.,
%
clouds,
%
prec.,
mm/h
press.,
hPa
HPBL,
m
3 december, thu
thu301:00ene4851100 0.0 1018333
04:00−1˚e4849100 0.0 1016353
07:00−1˚e51150100 0.0 1014397
10:00e41054100 0.4 1014501
13:00−1˚e4884100 1.2 1013374
16:00+1˚ene3875100 1.1 1011369
19:00+2˚e3875100 1.7 1010416
22:00+2˚e4107899 0.0 1009479
4 december, fri
fri401:00+1˚e497273 0.0 1008360
04:00+1˚e411756 0.0 1006472
07:00+2˚ese3117839 0.0 1006593
10:00+3˚ese4107599 0.0 1006660
13:00+6˚se5106781 0.0 1006731
16:00+6˚ese4117361 0.0 1006628
19:00+6˚ese4138079 0.0 1007627
22:00+5˚ese41385100 0.0 1007610
5 december, sat
sat501:00+4˚ene489097 0.0 1008271
04:00+3˚ene369599 0.0 1007169
07:00+4˚e389594 0.0 1008258
10:00+6˚ese4108576 0.0 1009654
13:00+10˚e396865 0.0 1009743
16:00+9˚ese31273100 0.0 1008482
19:00+8˚ese3137897 0.0 1009648
22:00+7˚ese3158585 0.0 1009697
6 december, sun
sun601:00+7˚e3148792 0.0 1009730
04:00+7˚e41490100 0.0 1008705
07:00+7˚e51585100 0.0 1008889
10:00+9˚ese71671100 0.0 10071261
13:00+12˚ese81756100 0.0 10041658
16:00+10˚ese71865100 0.0 10021451
19:00+10˚ese71863100 0.0 10021527
22:00+9˚ese91882100 1.4 10021209
7 december, mon
mon701:00+9˚se31483100 3.1 10021220
04:00+9˚ssw3880100 1.6 1004576
07:00+7˚s3107798 1.7 1007527
10:00+8˚s267433 0.0 1010377
13:00+10˚sse236033 0.0 1010686
16:00+9˚ene22660 0.0 101125
19:00+7˚ene378319 0.0 1011221
22:00+6˚ene378981 0.0 1012271